Location: *
(50.9167°S, 179.4000°W)
Time: 21:54:42
(UTC+00:00)

ALOS 2 - Pass Details

Date: 03 March 2024
Orbit: 630 x 632 km, 97.9° (Epoch: 16 April)

Event Time Altitude Azimuth Distance (km) Brightness Sun altitude
Rises 12:22:08 0° 165° (SSE) 2,971 7.1 -32.5°
Reaches altitude 10° 12:24:22 10° 163° (SSE) 2,055 6.0 -32.5°
Enters shadow 12:26:39 30° 159° (SSE) 1,168 4.4 -32.4°
